TimeCDT,TemperatureF,Dew PointF,Humidity,Sea Level PressureIn,VisibilityMPH,Wind Direction,Wind SpeedMPH,Gust SpeedMPH,PrecipitationIn,Events,Conditions,WindDirDegrees,DateUTC
12:15 AM,36.1,29.1,76,30.09,10.0,NNW,10.4,18.4,N/A,,Clear,330,2014-03-12 05:15:00
12:35 AM,35.6,28.2,75,30.10,10.0,NNW,11.5,20.7,N/A,,Clear,340,2014-03-12 05:35:00
12:55 AM,34.9,27.5,74,30.11,10.0,NNW,8.1,-,N/A,,Clear,340,2014-03-12 05:55:00
1:15 AM,34.3,27.1,75,30.12,10.0,NNW,6.9,-,N/A,,Clear,330,2014-03-12 06:15:00
1:35 AM,33.8,26.8,75,30.12,10.0,North,5.8,-,N/A,,Clear,350,2014-03-12 06:35:00
1:55 AM,33.4,26.6,76,30.13,10.0,NNW,8.1,-,N/A,,Clear,330,2014-03-12 06:55:00
2:15 AM,32.5,26.6,79,30.13,10.0,NW,5.8,-,N/A,,Clear,320,2014-03-12 07:15:00
2:35 AM,32.0,25.9,78,30.14,10.0,NW,5.8,-,N/A,,Clear,310,2014-03-12 07:35:00
2:55 AM,31.1,25.7,80,30.14,10.0,NW,6.9,-,N/A,,Clear,310,2014-03-12 07:55:00
3:15 AM,31.1,26.1,82,30.14,10.0,NW,6.9,-,N/A,,Clear,310,2014-03-12 08:15:00
3:35 AM,30.9,26.1,82,30.14,10.0,NW,5.8,-,N/A,,Mostly Cloudy,310,2014-03-12 08:35:00
3:55 AM,31.6,26.4,81,30.14,10.0,NW,8.1,-,N/A,,Overcast,310,2014-03-12 08:55:00
4:15 AM,32.0,26.2,79,30.13,10.0,NW,8.1,-,N/A,,Overcast,310,2014-03-12 09:15:00
4:35 AM,31.6,25.9,79,30.13,10.0,NW,6.9,-,N/A,,Mostly Cloudy,310,2014-03-12 09:35:00
4:55 AM,31.1,25.7,80,30.14,10.0,NW,6.9,-,N/A,,Scattered Clouds,310,2014-03-12 09:55:00
5:15 AM,30.6,25.5,82,30.15,10.0,NW,6.9,-,N/A,,Clear,310,2014-03-12 10:15:00
5:35 AM,30.4,25.7,83,30.15,10.0,NW,6.9,-,N/A,,Clear,320,2014-03-12 10:35:00
5:55 AM,29.7,25.0,83,30.16,10.0,NW,4.6,-,N/A,,Clear,310,2014-03-12 10:55:00
6:15 AM,29.5,25.0,83,30.16,10.0,NW,4.6,-,N/A,,Clear,310,2014-03-12 11:15:00
6:35 AM,29.1,25.0,85,30.16,10.0,NW,4.6,-,N/A,,Clear,310,2014-03-12 11:35:00
6:55 AM,29.1,25.2,85,30.16,10.0,Calm,Calm,-,N/A,,Scattered Clouds,0,2014-03-12 11:55:00
7:15 AM,29.3,25.7,86,30.16,10.0,Calm,Calm,-,N/A,,Scattered Clouds,0,2014-03-12 12:15:00
7:35 AM,28.6,25.2,87,30.16,10.0,Calm,Calm,-,N/A,,Mostly Cloudy,0,2014-03-12 12:35:00
7:55 AM,28.8,25.5,88,30.16,10.0,WNW,5.8,-,N/A,,Mostly Cloudy,300,2014-03-12 12:55:00
8:15 AM,30.0,26.1,85,30.15,10.0,Calm,Calm,-,N/A,,Overcast,0,2014-03-12 13:15:00
8:35 AM,30.2,26.4,86,30.18,10.0,NW,5.8,-,N/A,,Overcast,310,2014-03-12 13:35:00
8:55 AM,30.7,27.0,86,30.18,10.0,Calm,Calm,-,N/A,,Overcast,0,2014-03-12 13:55:00
9:15 AM,31.1,27.0,85,30.18,10.0,NW,3.5,-,N/A,,Overcast,310,2014-03-12 14:15:00
9:35 AM,31.8,27.1,83,30.18,10.0,WNW,3.5,-,N/A,,Overcast,300,2014-03-12 14:35:00
9:55 AM,32.5,28.0,83,30.19,10.0,NW,6.9,-,N/A,,Overcast,310,2014-03-12 14:55:00
10:15 AM,33.3,27.9,81,30.19,10.0,NW,5.8,-,N/A,,Overcast,310,2014-03-12 15:15:00
10:35 AM,35.1,28.9,78,30.18,10.0,WNW,3.5,-,N/A,,Scattered Clouds,290,2014-03-12 15:35:00
10:55 AM,36.7,29.8,76,30.17,10.0,West,3.5,-,N/A,,Scattered Clouds,270,2014-03-12 15:55:00
11:15 AM,37.0,29.3,74,30.17,10.0,WNW,4.6,-,N/A,,Scattered Clouds,290,2014-03-12 16:15:00
11:35 AM,38.3,29.3,70,30.17,10.0,West,3.5,-,N/A,,Scattered Clouds,280,2014-03-12 16:35:00
11:55 AM,39.9,28.9,65,30.16,10.0,WNW,6.9,-,N/A,,Mostly Cloudy,290,2014-03-12 16:55:00
12:15 PM,41.0,29.7,64,30.16,10.0,WSW,5.8,-,N/A,,Scattered Clouds,240,2014-03-12 17:15:00
12:35 PM,42.3,29.7,61,30.15,10.0,West,9.2,-,N/A,,Scattered Clouds,280,2014-03-12 17:35:00
1:15 PM,44.6,31.1,59,30.15,10.0,WNW,8.1,-,N/A,,Scattered Clouds,290,2014-03-12 18:15:00
1:35 PM,46.0,31.3,56,30.13,10.0,West,11.5,18.4,N/A,,Scattered Clouds,270,2014-03-12 18:35:00
1:55 PM,46.6,31.8,56,30.13,10.0,NW,13.8,17.3,N/A,,Scattered Clouds,310,2014-03-12 18:55:00
2:15 PM,47.7,32.0,55,30.12,10.0,WNW,15.0,19.6,N/A,,Clear,290,2014-03-12 19:15:00
2:35 PM,48.4,31.1,51,30.11,10.0,WNW,15.0,23.0,N/A,,Scattered Clouds,290,2014-03-12 19:35:00
2:55 PM,48.6,28.2,45,30.10,10.0,NW,12.7,19.6,N/A,,Mostly Cloudy,320,2014-03-12 19:55:00
3:15 PM,49.6,28.8,45,30.09,10.0,NW,16.1,26.5,N/A,,Mostly Cloudy,310,2014-03-12 20:15:00
3:35 PM,51.1,25.9,38,30.09,10.0,NW,15.0,24.2,N/A,,Scattered Clouds,320,2014-03-12 20:35:00
3:55 PM,50.7,25.2,37,30.08,10.0,NW,16.1,26.5,N/A,,Clear,320,2014-03-12 20:55:00
4:15 PM,52.0,23.7,33,30.08,10.0,NNW,13.8,21.9,N/A,,Scattered Clouds,330,2014-03-12 21:15:00
4:35 PM,52.5,23.7,33,30.08,10.0,NW,17.3,23.0,N/A,,Scattered Clouds,310,2014-03-12 21:35:00
4:55 PM,51.4,22.8,33,30.08,10.0,NW,10.4,17.3,N/A,,Scattered Clouds,320,2014-03-12 21:55:00
5:15 PM,53.6,22.6,30,30.07,10.0,NW,15.0,20.7,N/A,,Scattered Clouds,310,2014-03-12 22:15:00
5:35 PM,52.3,21.9,30,30.07,10.0,NW,15.0,19.6,N/A,,Scattered Clouds,310,2014-03-12 22:35:00
5:55 PM,52.9,22.3,30,30.06,10.0,NNW,10.4,23.0,N/A,,Clear,340,2014-03-12 22:55:00
6:15 PM,52.9,22.1,30,30.06,10.0,NNW,12.7,18.4,N/A,,Clear,330,2014-03-12 23:15:00
6:35 PM,52.5,22.6,31,30.06,10.0,NNW,6.9,-,N/A,,Clear,330,2014-03-12 23:35:00
6:55 PM,52.0,22.8,32,30.06,10.0,NNW,4.6,-,N/A,,Clear,340,2014-03-12 23:55:00
7:15 PM,51.3,23.0,33,30.06,10.0,NNW,3.5,-,N/A,,Clear,330,2014-03-13 00:15:00
7:35 PM,49.1,23.0,36,30.05,10.0,Calm,Calm,-,N/A,,Clear,0,2014-03-13 00:35:00
7:55 PM,45.5,23.0,41,30.06,10.0,Calm,Calm,-,N/A,,Clear,0,2014-03-13 00:55:00
8:15 PM,41.9,24.1,49,30.06,10.0,Calm,Calm,-,N/A,,Clear,0,2014-03-13 01:15:00
8:35 PM,40.1,23.9,52,30.06,10.0,Calm,Calm,-,N/A,,Clear,0,2014-03-13 01:35:00
8:55 PM,39.0,23.9,55,30.06,10.0,Calm,Calm,-,N/A,,Clear,0,2014-03-13 01:55:00
9:15 PM,36.1,25.3,65,30.06,10.0,Calm,Calm,-,N/A,,Clear,0,2014-03-13 02:15:00
9:35 PM,37.2,24.8,61,30.07,10.0,Calm,Calm,-,N/A,,Clear,0,2014-03-13 02:35:00
9:55 PM,35.1,24.4,65,30.06,10.0,Calm,Calm,-,N/A,,Clear,0,2014-03-13 02:55:00
10:15 PM,36.3,24.1,61,30.06,10.0,Calm,Calm,-,N/A,,Clear,0,2014-03-13 03:15:00
10:35 PM,34.0,23.7,66,30.06,10.0,Calm,Calm,-,N/A,,Clear,0,2014-03-13 03:35:00
10:55 PM,33.4,23.7,68,30.06,10.0,Calm,Calm,-,N/A,,Clear,0,2014-03-13 03:55:00
11:15 PM,33.4,23.5,67,30.06,10.0,Calm,Calm,-,N/A,,Clear,0,2014-03-13 04:15:00
11:35 PM,32.5,23.2,68,30.05,10.0,Calm,Calm,-,N/A,,Clear,0,2014-03-13 04:35:00
11:55 PM,32.0,23.4,70,30.05,10.0,Calm,Calm,-,N/A,,Clear,0,2014-03-13 04:55:00